64013000, 5301503, 2016-12-05 00:00:00, 13.35760, 109.26660,   0,  11,   1, -5.00, 1012.70, 15.00, 1,   2, 255, 0.000
64013000, 5301503, 2016-12-05 01:00:00, 13.35760, 109.26660,   0,  11,   1, -5.00, 1013.20, 15.00, 1,   7, 255, 0.000
64013000, 5301503, 2016-12-05 02:00:00, 13.35760, 109.26660,   0,  11,   2, -5.00, 1013.20, 15.00, 1,   7, 255, 0.000
64013000, 5301503, 2016-12-05 03:00:00, 13.35760, 109.26660,   0,  11,   1, -5.00, 1012.80, 15.00, 0,  28, 255, 0.000
64013000, 5301503, 2016-12-05 04:00:00, 13.35760, 109.26660,   0,  10,   1, -5.00, 1012.60, 15.00, 1,   8, 255, 0.000
64013000, 5301503, 2016-12-05 05:00:00, 13.35760, 109.26660,   0,  11,   1, -5.00, 1011.60, 15.00, 0,  12, 255, 0.000
64013000, 5301503, 2016-12-05 06:00:00, 13.35760, 109.26660,   0,  10,   1, -5.00, 1011.40, 15.00, 0,   3, 255, 0.000
64013000, 5301503, 2016-12-05 07:00:00, 13.35760, 109.26660,   0,  12,   2, -5.00, 1010.80, 15.00, 0,  10, 255, 0.000
64013000, 5301503, 2016-12-05 08:00:00, 13.35780, 109.26660,   0,  11,   2, -5.00, 1010.30, 15.00, 0,   8, 255, 0.000
64013000, 5301503, 2016-12-05 09:00:00, 13.35760, 109.26660,   0,  11,   1, -5.00, 1010.60, 15.00, 1,   1, 255, 0.000
64013000, 5301503, 2016-12-05 10:00:00, 13.35760, 109.26660,   0,  11,   1, -5.00, 1011.00, 15.00, 0,   4, 255, 0.000
64013000, 5301503, 2016-12-05 11:00:00, 13.35760, 109.26660,   0,  10,   2, -5.00, 1011.70, 15.00, 0,   7, 255, 0.000
64013000, 5301503, 2016-12-05 12:00:00, 13.35760, 109.26660,   0,  11,   1, -5.00, 1012.40, 15.00, 0,   8, 255, 0.000
64013000, 5301503, 2016-12-05 13:00:00, 13.35760, 109.26660,   0,  11,   1, -5.00, 1013.20, 15.00, 1,  21, 255, 0.000
64013000, 5301503, 2016-12-05 14:00:00, 13.35760, 109.26660,   0,  12,   1, -5.00, 1013.70, 15.00, 1,  11, 255, 0.000
64013000, 5301503, 2016-12-05 15:00:00, 13.35760, 109.26660,   0,  10,   1, -5.00, 1013.80, 15.00, 0,  25, 255, 0.000
64013000, 5301503, 2016-12-05 16:00:00, 13.35760, 109.26660,   0,  10,   1, -5.00, 1013.70, 15.00, 1,   8, 255, 0.000
64013000, 5301503, 2016-12-05 17:00:00, 13.35760, 109.26660,   0,  11,   1, -5.00, 1013.50, 14.80, 0,  11, 255, 0.000
64013000, 5301503, 2016-12-05 18:00:00, 13.35760, 109.26660,   0,  10,   1, -5.00, 1013.60, 14.80, 1,   9, 255, 0.000
64013000, 5301503, 2016-12-05 19:00:00, 13.35760, 109.26660,   0,  12,   1, -5.00, 1013.20, 14.80, 1,   8, 255, 0.000
64013000, 5301503, 2016-12-05 20:00:00, 13.35760, 109.26660,   0,  11,   1, -5.00, 1012.70, 14.80, 0,  11, 255, 0.000
64013000, 5301503, 2016-12-05 21:00:00, 13.35760, 109.26660,   0,  11,   1, -5.00, 1012.60, 14.80, 0,   8, 255, 0.000
64013000, 5301503, 2016-12-05 22:00:00, 13.35760, 109.26660,   0,  12,   1, -5.00, 1012.70, 14.80, 1,   1, 255, 0.000
64013000, 5301503, 2016-12-05 23:00:00, 13.35760, 109.26660,   0,  11,   1, -5.00, 1013.30, 14.80, 0,   8, 255, 0.000
64013000, 5301503, 2016-12-06 00:00:00, 13.35760, 109.26660,   0,  11,   1, -5.00, 1013.50, 14.80, 0,   8, 255, 0.000
64013000, 5301503, 2016-12-06 01:00:00, 13.35760, 109.26660,   0,  11,   1, -5.00, 1014.60, 14.80, 0,  11, 255, 0.000
64013000, 5301503, 2016-12-06 02:00:00, 13.35760, 109.26660,   0,  12,   1, -5.00, 1015.30, 14.80, 0,  12, 255, 0.000
64013000, 5301503, 2016-12-06 03:00:00, 13.35760, 109.26660,   0,  11,   1, -5.00, 1015.40, 14.80, 0,  20, 255, 0.000
64013000, 5301503, 2016-12-06 04:00:00, 13.35760, 109.26660,   0,  11,   1, -5.00, 1014.10, 14.80, 1,   1, 255, 0.000
64013000, 5301503, 2016-12-06 05:00:00, 13.35760, 109.26660,   0,  10,   1, -5.00, 1012.90, 14.80, 1,   8, 255, 0.000
64013000, 5301503, 2016-12-06 06:00:00, 13.35760, 109.26660,   0,  11,   1, -5.00, 1011.90, 14.80, 1,   7, 255, 0.000
64013000, 5301503, 2016-12-06 07:00:00, 13.35760, 109.26660,   0,  12,   1, -5.00, 1011.40, 14.80, 0,  10, 255, 0.000
64013000, 5301503, 2016-12-06 08:00:00, 13.35760, 109.26660,   0,  11,   2, -5.00, 1011.30, 14.80, 0,  10, 255, 0.000
64013000, 5301503, 2016-12-06 09:00:00, 13.35760, 109.26660,   0,  11,   1, -5.00, 1011.50, 14.80, 0,   8, 255, 0.000
64013000, 5301503, 2016-12-06 10:00:00, 13.35760, 109.26660,   0,  11,   1, -5.00, 1012.10, 14.80, 1,   8, 255, 0.000
64013000, 5301503, 2016-12-06 11:00:00, 13.35760, 109.26660,   0,  11,   2, -5.00, 1012.00, 14.80, 1,   8, 255, 0.000
64013000, 5301503, 2016-12-06 12:00:00, 13.35760, 109.26660,   0,  11,   1, -5.00, 1012.90, 14.80, 0,   9, 255, 0.000
64013000, 5301503, 2016-12-06 13:00:00, 13.35760, 109.26660,   0,  12,   1, -5.00, 1013.10, 14.80, 0,   8, 255, 0.000
64013000, 5301503, 2016-12-06 14:00:00, 13.35760, 109.26660,   0,  12,   1, -5.00, 1013.30, 14.80, 1,   8, 255, 0.000
64013000, 5301503, 2016-12-06 15:00:00, 13.35760, 109.26660,   0,  11,   1, -5.00, 1013.30, 14.80, 0,   8, 255, 0.000
64013000, 5301503, 2016-12-06 16:00:00, 13.35760, 109.26660,   0,  10,   1, -5.00, 1012.60, 14.80, 0,   1, 255, 0.000
64013000, 5301503, 2016-12-06 17:00:00, 13.35760, 109.26660,   0,  11,   1, -5.00, 1012.20, 14.80, 1,   8, 255, 0.000
64013000, 5301503, 2016-12-06 18:00:00, 13.35760, 109.26660,   0,  10,   1, -5.00, 1011.30, 14.80, 1,   8, 255, 0.000
64013000, 5301503, 2016-12-06 19:00:00, 13.35760, 109.26660,   0,  12,   1, -5.00, 1010.80, 14.80, 0,   8, 255, 0.000
64013000, 5301503, 2016-12-06 20:00:00, 13.35760, 109.26660,   0,  11,   1, -5.00, 1010.60, 14.80, 1,  21, 255, 0.000
64013000, 5301503, 2016-12-06 21:00:00, 13.35760, 109.26660,   0,  11,   1, -5.00, 1010.90, 14.80, 1,  13, 255, 0.000
64013000, 5301503, 2016-12-06 22:00:00, 13.35760, 109.26660,   0,  12,   1, -5.00, 1011.00, 14.80, 1,   7, 255, 0.000
64013000, 5301503, 2016-12-06 23:00:00, 13.35760, 109.26660,   0,  11,   1, -5.00, 1011.40, 14.80, 0,   8, 255, 0.000
64013000, 5301503, 2016-12-07 00:00:00, 13.35760, 109.26660,   0,  11,   1, -5.00, 1012.40, 14.80, 0,  17, 255, 0.000
64013000, 5301503, 2016-12-07 01:00:00, 13.35760, 109.26660,   0,  11,   1, -5.00, 1012.70, 14.80, 0,   9, 255, 0.000
64013000, 5301503, 2016-12-07 02:00:00, 13.35760, 109.26660,   0,  12,   1, -5.00, 1013.20, 14.80, 0,   1, 255, 0.000
64013000, 5301503, 2016-12-07 03:00:00, 13.35760, 109.26660,   0,  11,   1, -5.00, 1013.10, 14.80, 0,   9, 255, 0.000
64013000, 5301503, 2016-12-07 04:00:00, 13.35780, 109.26660,   0,  11,   1, -5.00, 1012.60, 14.80, 0,   8, 255, 0.000
64013000, 5301503, 2016-12-07 05:00:00, 13.35760, 109.26660,   0,  11,   1, -5.00, 1011.80, 14.80, 0,   7, 255, 0.000
64013000, 5301503, 2016-12-07 06:00:00, 13.35760, 109.26660,   0,  11,   1, -5.00, 1010.80, 14.80, 1,  10, 255, 0.000
64013000, 5301503, 2016-12-07 07:00:00, 13.35760, 109.26660,   0,  12,   1, -5.00, 1010.20, 14.80, 1,   9, 255, 0.000
64013000, 5301503, 2016-12-07 08:00:00, 13.35760, 109.26660,   0,  11,   1, -5.00, 1010.10, 14.80, 0,   7, 255, 0.000
64013000, 5301503, 2016-12-07 09:00:00, 13.35760, 109.26660,   0,  11,   1, -5.00, 1010.20, 14.80, 1,   8, 255, 0.000
64013000, 5301503, 2016-12-07 10:00:00, 13.35760, 109.26660,   0,  11,   1, -5.00, 1010.50, 14.80, 0,  10, 255, 0.000
64013000, 5301503, 2016-12-07 11:00:00, 13.35760, 109.26660,   0,  10,   1, -5.00, 1011.10, 14.80, 1,  11, 255, 0.000
64013000, 5301503, 2016-12-07 12:00:00, 13.35760, 109.26660,   0,  11,   1, -5.00, 1011.50, 14.80, 0,   8, 255, 0.000
64013000, 5301503, 2016-12-07 13:00:00, 13.35780, 109.26660,   0,  12,   1, -5.00, 1012.00, 14.80, 0,   9, 255, 0.000
64013000, 5301503, 2016-12-07 14:00:00, 13.35760, 109.26660,   0,  12,   1, -5.00, 1011.90, 14.80, 0,   7, 255, 0.000
64013000, 5301503, 2016-12-07 15:00:00, 13.35760, 109.26660,   0,  10,   1, -5.00, 1011.90, 14.80, 0,   8, 255, 0.000
64013000, 5301503, 2016-12-07 16:00:00, 13.35760, 109.26660,   0,  10,   1, -5.00, 1011.50, 14.80, 1,   9, 255, 0.000
64013000, 5301503, 2016-12-07 17:00:00, 13.35760, 109.26660,   0,  11,   1, -5.00, 1010.90, 14.80, 0,   9, 255, 0.000
64013000, 5301503, 2016-12-07 18:00:00, 13.35760, 109.26660,   0,  11,   1, -5.00, 1010.60, 14.80, 0,   7, 255, 0.000
64013000, 5301503, 2016-12-07 19:00:00, 13.35760, 109.26660,   0,  12,   1, -5.00, 1010.10, 14.80, 1,  63, 255, 0.000
64013000, 5301503, 2016-12-07 20:00:00, 13.35760, 109.26660,   0,  11,   1, -5.00, 1009.70, 14.80, 0,  15, 255, 0.000
64013000, 5301503, 2016-12-07 21:00:00, 13.35760, 109.26660,   0,  11,   1, -5.00, 1010.00, 14.80, 1,  10, 255, 0.000
64013000, 5301503, 2016-12-07 22:00:00, 13.35760, 109.26660,   0,  12,   1, -5.00, 1010.10, 14.80, 1,  10, 255, 0.000
64013000, 5301503, 2016-12-07 23:00:00, 13.35760, 109.26660,   0,  11,   1, -5.00, 1010.70, 14.80, 1,  10, 255, 0.000
64013000, 5301503, 2016-12-08 00:00:00, 13.35760, 109.26660,   0,  11,   1, -5.00, 1011.10, 14.80, 1,   4, 255, 0.000
64013000, 5301503, 2016-12-08 01:00:00, 13.35760, 109.26660,   0,  11,   1, -5.00, 1011.60, 14.80, 0,  11, 255, 0.000
64013000, 5301503, 2016-12-08 02:00:00, 13.35760, 109.26660,   0,  11,   1, -5.00, 1011.80, 14.80, 0,  10, 255, 0.000
64013000, 5301503, 2016-12-08 03:00:00, 13.35760, 109.26660,   0,  11,   1, -5.00, 1011.80, 14.80, 1,  10, 255, 0.000
64013000, 5301503, 2016-12-08 04:00:00, 13.35780, 109.26660,   0,  11,   1, -5.00, 1011.20, 14.80, 0,   8, 255, 0.000
64013000, 5301503, 2016-12-08 05:00:00, 13.35760, 109.26660,   0,  11,   1, -5.00, 1010.40, 14.80, 0,  12, 255, 0.000
64013000, 5301503, 2016-12-08 06:00:00, 13.35760, 109.26660,   0,  11,   1, -5.00, 1009.60, 14.80, 0,   8, 255, 0.000
64013000, 5301503, 2016-12-08 07:00:00, 13.35760, 109.26660,   0,  12,   2, -5.00, 1009.50, 14.80, 0,   8, 255, 0.000
